sat.trackr.live / text

‹ back to catalog

UNKNOWN

NORAD 81134

UNKNOWN UNKNOWN UNKNOWN

§ Identity

Operator
Country
Launch date
Launch site
Launch vehicle
Mass (kg)
RCS (m²)

External: N2YO · Heavens-Above

§ Orbital elements

Epoch: 2026-07-08T22:38:30.211872Z

Period
111.36 min
Inclination
90.2502°
Eccentricity
0.0024556
Mean motion
12.93055221 rev/d
Perigee alt
1,270.6 km
Apogee alt
1,308.3 km
Semi-major
7,667.6 km
B*
7.8174e-4
RAAN
8.7774°
Arg perigee
200.3230°
Mean anomaly
159.6913°
Rev number
48,951

§ Raw data

UNKNOWN1 81134U          26189.94340523  .00000221  00000+0  78174-3 0  99972 81134  90.2502   8.7774 0024556 200.3230 159.6913 12.93055221489513

JSON: /api/v1/satellites/81134 · /tle

For live sub-satellite position, see the globe view (requires WebGL).

§ Visibility from observer

Set your observer location to see the next 7 days of passes ≥ 10°. The values pass through the URL so the page stays shareable.

No JS? Fill the form by hand. The geolocation button needs JavaScript.